Location: Cossonay
(46.5833°N, 6.4167°E)
Time: 22:19:09
(UTC+00:00)

CBERS-1 - Pass Details

Date: 10 October 2020
Orbit: 770 x 777 km, 98.6° (Epoch: 22 October)

Event Time Altitude Azimuth Distance (km) Brightness Sun altitude
Rises 01:39:34 0° 17° (NNE) 3,261 7.9 -40.4°
Reaches altitude 10° 01:41:56 10° 21° (NNE) 2,331 7.1 -40.1°
Enters shadow 01:43:14 18° 25° (NNE) 1,840 6.4 -39.9°
